Погода в Хлеборобном

Россия / Алтайский край     52°12′52″N   84°37′53″E
темп.,
°C
ветер,
м/с
пор.,
м/с
влажн.,
%
обл.,
%
осадки,
мм/ч
давл.,
гПа
погр.,
м
12 апреля, пн
пн1201:00+1в3495100 0.0 1037176
04:00+1в3495100 0.0 1035161
07:00+1в3394100 0.0 1036104
10:00+1всв2410080 0.0 1035108
13:00+1всв2210095 0.1 1034108
16:00+2всв11100100 0.1 103336
19:00+1юз0110098 0.1 103315
22:00+1юз2398100 0.0 103369
13 апреля, вт
вт1301:00−1зюз229878 0.0 103133
04:00−5ююз229667 0.0 103121
07:00−5зюз229793 0.0 103030
10:00+1з3798100 0.0 1030238
13:00+1зюз48100100 1.9 1031318
16:00+1з46100100 1.3 1033343
19:00+1зюз35100100 1.3 1035174
22:00+1юз3697100 0.0 1036123
14 апреля, ср
ср1401:00+1зюз4894100 0.0 1036290
04:000з489636 0.0 1036253
07:00−3зюз379722 0.0 1037142
10:000зюз479513 0.0 1037354
13:00+2зюз369171 0.0 1035382
16:00+4зюз4787100 0.0 1032326
19:00+3зюз3791100 0.0 1030147
22:00+2юз3785100 0.0 1030110
15 апреля, чт
чт1501:00+2юз3781100 0.0 1028110
04:00+2зюз2584100 0.0 102875
07:00+1зюз2389100 0.0 102850
10:00+3зюз2392100 0.0 102893
13:00+4зюз1290100 0.0 1027101
16:00+5зсз0187100 0.0 1026152
19:00+4ююв119378 0.0 102511
22:00+1ююв119475 0.0 102516
16 апреля, пт
пт1601:00+2ююв119484 0.0 102420
04:00+1юв229493 0.0 102316
07:00+2вюв119114 0.0 102210
10:00+6в12836 0.0 1021128
13:00+9в22753 0.0 1019338
16:00+11в22675 0.0 1017486
19:00+9вюв23790 0.0 101694
22:00+6вюв22800 0.0 101520